Home   Weather   Palermo   Past weeks

Flag for Italy Past Weather in Palermo, Italy — Yesterday and Last 2 Weeks

Now
59 °F

Passing clouds.


Feels Like: 56 °F
Forecast: 44 / 56 °F
Wind: 18 mph from Northeast

Location: Palermo / Punta Raisi

Current Time: Feb 19, 2017 at 3:21:33 pm

Latest Report: Feb 19, 2017 at 2:50 pm


Visibility: N/A

Pressure: 30.18 "Hg

Humidity: 68%

Dew Point: 48 °F

Location of PalermoLocation

Past Weather in Palermo — Graph

°F

Palermo Temperature Yesterday

Maximum temperature yesterday: 59 °F (at 12:50 pm)
Minimum temperature yesterday: 50 °F (at 12:20 am)
Average temperature yesterday: 54 °F

High & Low Weather Summary for the Past Weeks

 TemperatureHumidityPressure
High68 °F (Feb 5, 12:20 pm)94% (Feb 9, 7:20 am)30.57 "Hg (Feb 9, 7:20 am)
Low46 °F (Feb 10, 7:20 am)49% (Feb 5, 9:50 pm)29.65 "Hg (Feb 6, 12:20 pm)
Average55 °F75%30.13 "Hg
* Reported Feb 4 1:20 pm — Feb 19 1:50 pm, Palermo, Weather by CustomWeather, © 2017

Note: Actual official high and low records may vary slightly from our data, if they occured in-between our weather recording intervals... More about our weather records

Advertising

Palermo Weather History for the Previous 24 Hours

Scroll right to see more
 ConditionsComfort  
Time TempWeatherWind HumidityBarometerVisibility
1:50 pm
Sun, Feb 19
59 °FPassing clouds.18 mph68%30.18 "HgN/A
1:20 pm59 °FPassing clouds.18 mph68%30.18 "HgN/A
12:50 pm57 °FPassing clouds.18 mph72%30.18 "HgN/A
12:20 pm57 °FPassing clouds.17 mph77%30.18 "HgN/A
11:50 am59 °FSunny.16 mph68%30.18 "Hg10 mi
11:20 am59 °FSunny.14 mph63%30.21 "Hg10 mi
10:50 am57 °FSunny.14 mph67%30.21 "Hg10 mi
10:20 am57 °FSunny.13 mph63%30.18 "Hg10 mi
9:50 am57 °FSunny.13 mph63%30.18 "Hg10 mi
9:20 am55 °FSunny.10 mph67%30.18 "Hg10 mi
8:50 am54 °FSunny.10 mph72%30.18 "Hg10 mi
8:20 am54 °FSunny.9 mph72%30.15 "Hg10 mi
7:50 am52 °FSunny.8 mph72%30.15 "Hg10 mi
7:20 am52 °FSunny.9 mph72%30.15 "Hg10 mi
6:50 am52 °FClear.9 mph72%30.15 "Hg10 mi
6:20 am50 °FClear.9 mph76%30.15 "Hg10 mi
5:20 am48 °FClear.2 mph82%30.15 "Hg10 mi
4:50 am46 °FClear.3 mph82%30.12 "Hg10 mi
4:20 am48 °FClear.1 mph82%30.15 "Hg10 mi
3:50 am48 °FClear.2 mph82%30.15 "Hg10 mi
2:50 am50 °FClear.1 mph82%30.15 "Hg10 mi
2:20 am50 °FClear.1 mph82%30.15 "Hg10 mi
1:50 am48 °FClear.2 mph82%30.15 "Hg10 mi
1:20 am52 °FClear.2 mph77%30.15 "Hg10 mi
12:50 am48 °FPassing clouds.3 mph82%30.15 "HgN/A
12:20 am50 °FClear.2 mph76%30.15 "Hg10 mi
11:50 pm
Sat, Feb 18
50 °FClear.2 mph76%30.15 "Hg10 mi
11:20 pm52 °FClear.1 mph72%30.15 "Hg10 mi
10:50 pm52 °FClear.1 mph72%30.15 "Hg10 mi
10:20 pm52 °FClear.2 mph67%30.15 "Hg10 mi
9:50 pm52 °FClear.10 mph72%30.15 "Hg10 mi
9:20 pm50 °FClear.10 mph76%30.15 "Hg10 mi
8:50 pm52 °FClear.10 mph72%30.15 "Hg10 mi
8:20 pm52 °FClear.9 mph72%30.15 "Hg10 mi
7:50 pm52 °FClear.9 mph72%30.15 "Hg10 mi
7:20 pm54 °FClear.10 mph67%30.15 "Hg10 mi
6:50 pm54 °FClear.10 mph67%30.15 "Hg10 mi
6:20 pm54 °FClear.12 mph67%30.15 "Hg10 mi
5:50 pm54 °FClear.9 mph72%30.12 "Hg10 mi
5:20 pm57 °FSunny.9 mph63%30.12 "Hg10 mi
4:50 pm57 °FSunny.10 mph63%30.12 "Hg10 mi
4:20 pm57 °FSunny.9 mph63%30.15 "Hg10 mi
3:50 pm59 °FSunny.8 mph59%30.15 "Hg10 mi
3:20 pm59 °FSunny.8 mph63%30.12 "Hg10 mi
Weather by CustomWeather, © 2017

See weather overviewHow to use our weather pages